User: anonymous   Login
Location: Unspecified
(0.0000°N, 0.0000°E)
Time: 09:39:10
(UTC+00:00)
Language:

OPTUS 1C - Orbit

View from above orbital plane
View from above orbital plane
View from above satellite
View from above satellite

Ground track
Ground track

The orbit data is extracted from the following two-line orbital elements,

1 27831U 03028B   15126.72173288 -.00000150  00000-0  00000+0 0  9993
2 27831 000.0151 206.8111 0002915 201.9536 231.3563 01.00271077 43614
Epoch (UTC): 06 May 2015 17:19:17
Eccentricity: 0.0002915
inclination: 0.0151°
perigee height: 35774 km
apogee height: 35799 km
right ascension of ascending node: 206.8111°
argument of perigee: 201.9536°
revolutions per day: 1.00271077
mean anomaly at epoch: 231.3563°
orbit number at epoch: 4361

The dashed part of the orbit path shows where the satellite is in the earth's shadow,  

DLR